User: anonymous   Login
Location: Spor
(46.2167°N, 11.0500°E)
Time: 10:25:39
(UTC+00:00)
Language:

Shenzhou-11 Module - Orbit

View from above orbital plane
View from above orbital plane
View from above satellite
View from above satellite

Ground track
Ground track

The orbit data is extracted from the following two-line orbital elements,

1 41868U 16061G   20226.68285883 +.00082395 +11435-4 +11823-3 0  9994
2 41868 042.7851 136.7010 0015120 218.5010 222.9345 16.04757283215244
Epoch (UTC): 13 August 2020 16:23:19
Eccentricity: 0.0015120
inclination: 42.7851°
perigee height: 251 km
apogee height: 271 km
right ascension of ascending node: 136.7010°
argument of perigee: 218.5010°
revolutions per day: 16.04757283
mean anomaly at epoch: 222.9345°
orbit number at epoch: 21524

The dashed part of the orbit path shows where the satellite is in the earth's shadow,  

DLR